Rome, NY

12:16 AM EST on November 19, 2019 (GMT -0500)
Griffiss

Weather History for KRME - October, 2019

Change the Weather History Date:

Saturday, October 19, 2019

  Actual Average Record
Temperature  
Mean Temperature 44 °F -  
Max Temperature 55 °F 56 °F 75 °F (1984)
Min Temperature 33 °F 37 °F 25 °F (2015)
Degree Days  
Heating Degree Days 21    
Moisture  
Dew Point 37 °F    
Average Humidity 90    
Maximum Humidity 100    
Minimum Humidity 50    
Precipitation  
Precipitation 0.00 in - - ()
Sea Level Pressure  
Sea Level Pressure 30.07 in    
Wind  
Wind Speed 1 mph (South)    
Max Wind Speed 6 mph    
Max Gust Speed -    
Visibility 7 miles    
Events Fog    
Averages and records for this station are not official NWS values.
T = Trace of Precipitation, MM = Missing Value Source: NWS Daily Summary

Daily Weather History Graph

Daily Weather History Graph

Search for Another Location

Airport or City:

Astronomy

Oct. 19, 2019 Rise Set
Actual Time 7:19 AM EDT 6:12 PM EDT
Civil Twilight 6:51 AM EDT 6:41 PM EDT
Nautical Twilight 6:17 AM EDT 7:14 PM EDT
Astronomical Twilight 5:44 AM EDT 7:47 PM EDT
Moon 10:12 PM EDT 12:56 PM EDT
Length of Visible Light 11h 50m
Length of Day
10h 52m
Waning Gibbous, 70% of the Moon is Illuminated
Oct 19
Waning Gibbous
Oct 21
Last Quarter
Oct 27
New
Nov 4
First Quarter
Nov 12
Full

Hourly Weather History & Observations

Time (EDT) Temp. Windchill Dew Point Humidity Pressure Visibility Wind Dir Wind Speed Gust Speed Precip Events Conditions
12:53 AM 43.0 °F - 41.0 °F 93% 30.05 in 10.0 mi Calm Calm - N/A   Overcast
1:53 AM 42.1 °F 40.2 °F 41.0 °F 96% 30.05 in 10.0 mi NNE 3.5 mph - N/A   Overcast
2:53 AM 41.0 °F - 41.0 °F 100% 30.06 in 10.0 mi Calm Calm - N/A   Overcast
3:53 AM 37.0 °F - 37.0 °F 100% 30.05 in 10.0 mi Calm Calm - N/A   Clear
4:53 AM 35.1 °F - 35.1 °F 100% 30.06 in 10.0 mi Calm Calm - N/A   Clear
5:48 AM 33.8 °F - 33.8 °F 100% 30.06 in 10.0 mi Calm Calm - N/A   Scattered Clouds
5:53 AM 34.0 °F - 34.0 °F 100% 30.07 in 10.0 mi Calm Calm - N/A   Mostly Cloudy
6:17 AM 35.1 °F - 35.1 °F 100% 30.06 in 10.0 mi Calm Calm - N/A   Overcast
6:24 AM 34.0 °F - 34.0 °F 100% 30.06 in 1.0 mi Calm Calm - N/A   Mist
6:27 AM 35.1 °F - 35.1 °F 100% 30.06 in 0.5 mi Calm Calm - N/A Fog Fog
6:35 AM 35.1 °F - 35.1 °F 100% 30.07 in 0.2 mi Calm Calm - N/A Fog Fog
6:53 AM 36.0 °F - 36.0 °F 100% 30.09 in 0.2 mi Calm Calm - N/A Fog Fog
7:38 AM 34.0 °F - 34.0 °F 100% 30.09 in 0.2 mi Calm Calm - N/A Fog Fog
7:53 AM 34.0 °F - 34.0 °F 100% 30.11 in 0.2 mi Calm Calm - N/A Fog Fog
8:53 AM 35.1 °F - 35.1 °F 100% 30.12 in 0.2 mi Calm Calm - N/A Fog Fog
9:22 AM 37.0 °F - 37.0 °F 100% 30.11 in 0.8 mi Calm Calm - N/A   Overcast
9:27 AM 37.9 °F - 37.9 °F 100% 30.11 in 2.0 mi Calm Calm - N/A   Overcast
9:39 AM 39.0 °F - 39.0 °F 100% 30.11 in 0.8 mi Calm Calm - N/A   Overcast
9:51 AM 39.2 °F 35.9 °F 39.2 °F 100% 30.11 in 0.2 mi WSW 4.6 mph - N/A Fog Fog
9:53 AM 39.0 °F 36.8 °F 39.0 °F 100% 30.12 in 0.2 mi SW 3.5 mph - N/A Fog Fog
10:07 AM 39.0 °F - 39.0 °F 100% 30.11 in 2.0 mi Calm Calm - N/A   Overcast
10:14 AM 39.9 °F - 39.9 °F 100% 30.11 in 5.0 mi Calm Calm - N/A   Overcast
10:44 AM 41.0 °F - 41.0 °F 100% 30.11 in 10.0 mi Calm Calm - N/A   Overcast
10:53 AM 42.1 °F - 42.1 °F 100% 30.12 in 10.0 mi Calm Calm - N/A   Mostly Cloudy
11:06 AM 42.1 °F - 41.0 °F 96% 30.11 in 10.0 mi Calm Calm - N/A   Scattered Clouds
11:53 AM 48.0 °F - 37.9 °F 68% 30.10 in 10.0 mi Variable 3.5 mph - N/A   Clear
12:53 PM 51.1 °F - 37.9 °F 61% 30.09 in 10.0 mi Variable 3.5 mph - N/A   Clear
1:53 PM 53.1 °F - 39.0 °F 59% 30.07 in 10.0 mi West 5.8 mph - N/A   Clear
2:53 PM 54.0 °F - 37.9 °F 55% 30.05 in 10.0 mi Variable 3.5 mph - N/A   Clear
3:53 PM 55.0 °F - 37.9 °F 53% 30.05 in 10.0 mi WSW 4.6 mph - N/A   Clear
4:53 PM 54.0 °F - 36.0 °F 51% 30.04 in 10.0 mi WSW 3.5 mph - N/A   Clear
5:53 PM 53.1 °F - 35.1 °F 50% 30.03 in 10.0 mi Calm Calm - N/A   Clear
6:53 PM 45.0 °F 42.6 °F 39.0 °F 80% 30.03 in 10.0 mi NE 4.6 mph - N/A   Clear
7:53 PM 42.1 °F - 39.0 °F 89% 30.03 in 10.0 mi Calm Calm - N/A   Clear
8:53 PM 39.0 °F 35.7 °F 37.0 °F 93% 30.03 in 10.0 mi ESE 4.6 mph - N/A   Clear
9:53 PM 37.9 °F 34.4 °F 37.0 °F 97% 30.02 in 10.0 mi SE 4.6 mph - N/A   Clear
10:53 PM 37.9 °F 35.5 °F 37.0 °F 97% 30.03 in 10.0 mi ESE 3.5 mph - N/A   Clear
11:53 PM 37.9 °F 34.4 °F 37.0 °F 97% 30.02 in 10.0 mi ESE 4.6 mph - N/A   Clear